Other Public Products
Issued by NWS Charleston, SC

Current Version | Previous Version | Graphics & Text | Print | Product List | Glossary On
Versions: 1 2 3 4 5 6 7 8 9 10 11 12 13 14 15 16 17 18 19 20 21 22 23 24 25 26 27 28 29 30 31 32 33 34 35 36 37 38 39 40 41 42 43 44 45 46 47 48 49 50
000
FPUS82 KCHS 162327
OPUCHS

TEST...KCHS/KSAV Gateway Observations...TEST
National Weather Service Charleston SC
600 PM EST THU NOV 16 2017

NOTE: "fair" indicates few or no clouds below 12,000 feet with no
significant weather and/or obstructions to visibility.

SCZ050-WAZ558-NCZ071-TXZ119-213-PAZ071-DCZ001-FLZ074-172-MI076-
NYZ176-178-MAZ016-IL014-TNZ027-NJZ106-GAZ044-MD014-170000-

...Gateway Observations for Charleston International...

CITY           SKY/WX    TMP DP  RH WIND       PRES   REMARKS
Chas Airport   PTCLDY    58  49  72 CALM      30.04R
Seattle        CLOUDY    44  42  93 S9        29.64S
Charlotte      PTCLDY    58  37  45 W3        30.03R
Dallas DFW     PTCLDY    72  62  71 S7        29.99F
Dallas Love    PTCLDY    73  62  68 SE5       30.00F
Philladelphia  MOCLDY    52  29  41 W22G28    29.94R
Wash National  PTCLDY    53  31  42 NW17      30.01R
Baltimore      PTCLDY    50  31  48 NW21G30   29.99R
Miami          MOCLDY    77  67  71 NE6       29.95R
Detroit        CLOUDY    40  30  67 NW9       30.18R WCI  34
Newark         PTCLDY    49  34  56 W13       29.85R
Laguardia      PTCLDY    51  34  52 W16G23    29.83R
J F K          PTCLDY    50  35  56 W17       29.84R
Boston Logan   LGT RAIN  45  43  93 W18G30    29.71R FOG
Ft. Lauderdale MOCLDY    73  70  90 N9        29.95R
Chicago O`Hare CLOUDY    37  27  67 NE6       30.25R WCI  32
Chicago Midway CLOUDY    38  29  70 CALM      30.26R
Houston Bush   MOCLDY    76  67  73 SE14      30.03S
Houston Hobby  MOCLDY    74  68  81 SE9       30.03R
Nashville      PTCLDY    54  33  45 N5        30.18R
Atlanta        MOCLDY    59  42  53 NW9       30.09R

$$

GAZ044-118-TXZ119-213-NCZ071-DCZ001-MDZ014-506-PAZ021-071-NJZ106-
NYZ176-178-MAZ106-OHZ011-021-055-MIZ076-KYZ091-ILZ014-INZ047-
MNZ060-ONZ431-170000-

...Gateway Observations for Savannah International...

CITY           SKY/WX    TMP DP  RH WIND       PRES   REMARKS
Savannah Arpt  CLEAR     61  50  67 CALM      30.04R
Atlanta        MOCLDY    59  42  53 NW9       30.09R
Charlotte      PTCLDY    58  37  45 W3        30.03R
Dallas DFW     PTCLDY    72  62  71 S7        29.99F
Houston Bush   MOCLDY    76  67  73 SE14      30.03S
Wash National  PTCLDY    53  31  42 NW17      30.01R
Wash Dulles    PTCLDY    48  31  51 NW18      30.02R
Baltimore      PTCLDY    50  31  48 NW21G30   29.99R
Philadelphia   MOCLDY    52  29  41 W22G28    29.94R
Newark         PTCLDY    49  34  56 W13       29.85R
Laguardia      PTCLDY    51  34  52 W16G23    29.83R
J F K          PTCLDY    50  35  56 W17       29.84R
Boston         LGT RAIN  45  43  93 W18G30    29.71R FOG
Pittsburg      CLOUDY    39  31  72 W13       30.12R WCI  31
Akron          CLOUDY    38  29  70 W14       30.14R WCI  30
Cleveland      CLOUDY    41  30  65 NW10      30.17R
Cincinnati     CLOUDY    37  31  78 N6        30.23R WCI  32
Columbus       CLOUDY    37  33  83 W6        30.21R WCI  33
Detroit        CLOUDY    40  30  67 NW9       30.18R WCI  34
Chicago O`Hare CLOUDY    37  27  67 NE6       30.25R WCI  32
Minneapolis    CLOUDY    32  26  78 SE15      30.07F WCI  22
Indianapolis   CLOUDY    37  29  72 CALM      30.25R
Toronto Canada MOCLDY    37  28  70 NW21G28   30.00R WCI  27

$$




USA.gov is the U.S. government's official web portal to all federal, state and local government web resources and services.